User: anonymous   Login
Location: Star Hoppers Observatory
(42.7905°N, 83.6127°W)
Time: 14:35:17
(UTC-04:00)
Language:

NOSS 3-1 (A) - Orbit

View from above orbital plane
View from above orbital plane
View from above satellite
View from above satellite

Ground track
Ground track

The orbit data is extracted from the following two-line orbital elements,

1 26905U 01040A   16271.10032976 0.00000000  00000-0  00000-0 0    05
2 26905  63.4136 345.1837 0341000 358.4924   1.5076 13.40738434    07
Epoch (UTC): 27 September 2016 02:24:28
Eccentricity: 0.0341000
inclination: 63.4136°
perigee height: 851 km
apogee height: 1362 km
right ascension of ascending node: 345.1837°
argument of perigee: 358.4924°
revolutions per day: 13.40738434
mean anomaly at epoch: 1.5076°
orbit number at epoch: 0

The dashed part of the orbit path shows where the satellite is in the earth's shadow,  

DLR